Flag for U.S.A. Weather past 2 weeks in Olathe, Kansas, U.S.A.

Now
75 °F

Passing clouds.


Feels Like: 75 °F
Forecast: 68 / 87 °F
Wind: No wind

Location: Johnson County Executive Airport

Current Time: Aug 30, 2015 at 11:56:50 PM

Latest Report: Aug 30, 2015 at 10:53 PM


Visibility: 10 mi

Pressure: 29.95 "Hg

Humidity: 85%

Dew point: 70 °F

Location of OlatheLocation

Historic Weather in Olathe — Graph

°F

Olathe temperature yesterday

Maximum temperature yesterday: 76 °F (at 2:53 PM)
Minimum temperature yesterday: 68 °F (at 6:57 AM)
Average temperature yesterday: 71 °F

Past Weeks' High & Low Weather Summary

 TemperatureHumidityPressure
High90 °F (Aug 17, 4:53 PM)100% (Aug 30, 5:53 AM)30.19 "Hg (Aug 30, 5:53 AM)
Low51 °F (Aug 24, 6:53 AM)37% (Aug 24, 1:53 PM)29.63 "Hg (Aug 18, 5:53 PM)
Average71 °F75%29.98 "Hg
* Reported Aug 15 9:53 PM — Aug 30 9:53 PM, Olathe, Weather by CustomWeather, © 2015

Note: Actual official high and low records may vary slightly from our data, if they occured in-between our weather recording intervals... More about our weather records

Advertising

Olathe weather history for previous 24 hours

 ConditionsComfort  
Time TempWeatherWind HumidityBarometerVisibility
9:53 PM
Sun, Aug 30
75 °FClear.5 mph85%29.95 "Hg10 mi
8:53 PM76 °FClear.5 mph82%29.94 "Hg10 mi
7:53 PM78 °FSunny.3 mph74%29.93 "Hg10 mi
6:53 PM80 °FSunny.7 mph67%29.92 "Hg10 mi
5:53 PM81 °FPassing clouds.7 mph67%29.93 "Hg10 mi
4:53 PM81 °FSunny.6 mph67%29.95 "Hg10 mi
3:53 PM81 °FSunny.8 mph69%29.96 "Hg10 mi
2:53 PM81 °FBroken clouds.8 mph69%29.98 "Hg10 mi
1:53 PM80 °FBroken clouds.7 mph71%29.99 "Hg10 mi
12:53 PM79 °FPartly sunny.7 mph74%30.00 "Hg10 mi
11:53 AM76 °FPartly sunny.6 mph82%30.03 "Hg9 mi
10:53 AM72 °FPartly sunny.6 mph91%30.03 "Hg7 mi
9:53 AM69 °FFog.5 mph96%30.03 "Hg5 mi
9:00 AM68 °FFog.7 mph100%30.04 "Hg1 mi
7:53 AM67 °FFog.8 mph100%30.00 "Hg0 mi
6:53 AM67 °FFog.6 mph100%29.98 "Hg0 mi
5:53 AM67 °FFog.6 mph100%29.97 "Hg1 mi
4:53 AM67 °FFog.5 mph97%29.98 "Hg6 mi
3:53 AM67 °FLow clouds.6 mph97%29.98 "Hg10 mi
2:53 AM67 °FPassing clouds.6 mph93%29.98 "Hg10 mi
1:53 AM67 °FPassing clouds.5 mph93%29.99 "Hg10 mi
12:53 AM68 °FPassing clouds.5 mph93%30.01 "Hg10 mi
11:53 PM
Sat, Aug 29
69 °FPassing clouds.7 mph90%30.01 "Hg10 mi
Weather by CustomWeather, © 2015

See weather overviewHow to use our weather pages